TimeCST,TemperatureF,Dew PointF,Humidity,Sea Level PressureIn,VisibilityMPH,Wind Direction,Wind SpeedMPH,Gust SpeedMPH,PrecipitationIn,Events,Conditions,WindDirDegrees,DateUTC
12:53 AM,42.1,37.9,85,30.36,10.0,NNW,3.5,-,N/A,,Clear,330,2012-11-28 06:53:00
1:53 AM,39.9,37.0,89,30.35,10.0,Calm,Calm,-,N/A,,Clear,0,2012-11-28 07:53:00
2:53 AM,39.0,36.0,89,30.35,10.0,North,3.5,-,N/A,,Clear,360,2012-11-28 08:53:00
3:53 AM,39.0,36.0,89,30.37,10.0,North,4.6,-,N/A,,Clear,360,2012-11-28 09:53:00
4:53 AM,41.0,37.9,89,30.38,9.0,Calm,Calm,-,N/A,,Clear,0,2012-11-28 10:53:00
5:53 AM,41.0,37.0,86,30.39,9.0,Calm,Calm,-,N/A,,Clear,0,2012-11-28 11:53:00
6:53 AM,39.9,37.0,89,30.42,8.0,NE,3.5,-,N/A,,Clear,50,2012-11-28 12:53:00
7:53 AM,42.1,37.9,85,30.45,7.0,ENE,4.6,-,N/A,,Clear,70,2012-11-28 13:53:00
8:53 AM,48.0,42.1,80,30.46,10.0,East,4.6,-,N/A,,Clear,90,2012-11-28 14:53:00
9:53 AM,53.1,44.1,71,30.46,10.0,SE,8.1,-,N/A,,Clear,130,2012-11-28 15:53:00
10:53 AM,57.0,42.1,57,30.45,10.0,East,8.1,-,N/A,,Clear,80,2012-11-28 16:53:00
11:53 AM,61.0,41.0,48,30.42,10.0,Variable,5.8,-,N/A,,Clear,0,2012-11-28 17:53:00
12:53 PM,63.0,42.1,46,30.37,10.0,ESE,6.9,-,N/A,,Clear,110,2012-11-28 18:53:00
1:53 PM,66.0,37.9,36,30.33,10.0,Variable,5.8,-,N/A,,Clear,0,2012-11-28 19:53:00
2:53 PM,68.0,39.0,35,30.30,10.0,Variable,3.5,-,N/A,,Clear,0,2012-11-28 20:53:00
3:53 PM,66.9,37.9,34,30.30,10.0,ESE,8.1,-,N/A,,Clear,120,2012-11-28 21:53:00
4:53 PM,64.9,39.0,39,30.29,10.0,ESE,6.9,-,N/A,,Clear,120,2012-11-28 22:53:00
5:53 PM,59.0,39.9,49,30.30,10.0,SSE,3.5,-,N/A,,Clear,150,2012-11-28 23:53:00
6:53 PM,55.9,39.0,53,30.32,10.0,SE,4.6,-,N/A,,Clear,130,2012-11-29 00:53:00
7:53 PM,55.0,39.0,55,30.33,10.0,SE,4.6,-,N/A,,Clear,130,2012-11-29 01:53:00
8:53 PM,53.1,39.0,59,30.33,10.0,Calm,Calm,-,N/A,,Clear,0,2012-11-29 02:53:00
9:53 PM,52.0,39.0,61,30.33,10.0,SE,4.6,-,N/A,,Clear,130,2012-11-29 03:53:00
10:53 PM,50.0,37.9,63,30.31,10.0,SE,3.5,-,N/A,,Clear,140,2012-11-29 04:53:00
11:53 PM,48.0,37.9,68,30.30,10.0,SSE,5.8,-,N/A,,Clear,160,2012-11-29 05:53:00